Location: Maccacari
(45.1333°N, 11.1333°E)
Time: 08:00:43
(UTC+00:00)

SR - Pass Details

Date: 30 January 2021
Orbit: 573 x 882 km, 66.7° (Epoch: 04 March)

Event Time Altitude Azimuth Distance (km) Brightness Sun altitude
Exits shadow 03:59:55 18° 358° (N) 1,836 ? -27.9°
Drops below altitude 10° 04:01:49 10° 15° (NNE) 2,361 ? -27.6°
Sets 04:04:46 0° 28° (NNE) 3,347 ? -27.1°
